Home   Weather   Hildesheim   Past weeks

Flag for Germany Past Weather in Hildesheim, Lower Saxony, Germany — Yesterday and Last 2 Weeks

Now
48 °F

Partly cloudy.


Feels Like: 42 °F
Forecast: 36 / 42 °F
Wind: 18 mph from Southwest

Location: Braunschweig Wolfsburg

Current Time: Feb 23, 2017 at 7:31:41 pm

Latest Report: Feb 23, 2017 at 6:50 pm


Visibility: N/A

Pressure: 29.12 "Hg

Humidity: 76%

Dew Point: 41 °F

Location of HildesheimLocation

Past Weather in Hildesheim — Graph

°F

Hildesheim Temperature Yesterday

Maximum temperature yesterday: 52 °F (at 6:50 am)
Minimum temperature yesterday: 43 °F (at 7:20 pm)
Average temperature yesterday: 48 °F

High & Low Weather Summary for the Past Weeks

 TemperatureHumidityPressure
High52 °F (Feb 15, 3:20 pm)100% (Feb 11, 9:50 am)30.60 "Hg (Feb 11, 9:50 am)
Low21 °F (Feb 14, 7:20 am)40% (Feb 15, 1:20 pm)29.15 "Hg (Feb 23, 4:50 pm)
Average38 °F83%30.19 "Hg
* Reported Feb 8 6:20 pm — Feb 23 6:20 pm, Hildesheim, Weather by CustomWeather, © 2017

Note: Actual official high and low records may vary slightly from our data, if they occured in-between our weather recording intervals... More about our weather records

Advertising

Hildesheim Weather History for the Previous 24 Hours

Scroll right to see more
 ConditionsComfort  
Time TempWeatherWind HumidityBarometerVisibility
6:20 pm
Thu, Feb 23
48 °FPassing clouds.21 mph71%29.15 "HgN/A
5:50 pm48 °FPartly cloudy.23 mph76%29.15 "HgN/A
5:20 pm48 °FBroken clouds.20 mph82%29.15 "HgN/A
4:50 pm48 °FPartly sunny.20 mph87%29.15 "HgN/A
4:20 pm48 °FBroken clouds.18 mph94%29.21 "HgN/A
3:50 pm48 °FLight rain. Broken clouds.17 mph94%29.21 "HgN/A
3:20 pm48 °FPartly sunny.13 mph100%29.24 "HgN/A
2:50 pm48 °FPartly sunny.12 mph100%29.27 "HgN/A
2:20 pm48 °FDrizzle. Mostly cloudy.14 mph100%29.30 "HgN/A
1:50 pm48 °FCloudy.13 mph100%29.33 "HgN/A
1:20 pm48 °FPassing clouds.8 mph100%29.33 "HgN/A
12:50 pm48 °FMostly cloudy.13 mph100%29.36 "HgN/A
12:20 pm48 °FMostly cloudy.10 mph100%29.39 "HgN/A
10:50 am43 °FCloudy.6 mph100%29.45 "Hg4 mi
10:20 am43 °FLight rain. Mostly cloudy.3 mph100%29.47 "Hg5 mi
9:50 am43 °FLight rain. More clouds than sun.3 mph100%29.47 "Hg6 mi
9:20 am43 °FDrizzle. Broken clouds.3 mph100%29.47 "Hg5 mi
8:20 am43 °FLight rain. Overcast.5 mph100%29.50 "HgN/A
7:20 am43 °FOvercast.9 mph100%29.53 "HgN/A
6:50 am43 °FLight rain. Mostly cloudy.7 mph100%29.53 "HgN/A
9:50 pm
Wed, Feb 22
43 °FPassing clouds.15 mph93%29.59 "HgN/A
9:20 pm43 °FPassing clouds.17 mph87%29.56 "HgN/A
7:50 pm43 °FPartly cloudy.18 mph93%29.56 "HgN/A
7:20 pm43 °FLight rain. Partly cloudy.18 mph93%29.56 "HgN/A
Weather by CustomWeather, © 2017

See weather overviewHow to use our weather pages